Regional Weather Roundup
Issued by NWS Portland, ME

Current Version | Previous Version | Text Only | Print | Product List | Glossary Off
Versions: 1 2 3 4 5 6 7 8 9 10 11 12 13 14 15 16 17 18 19 20 21 22 23 24 25 26 27 28 29 30 31 32 33 34 35 36 37 38 39 40 41 42 43 44 45 46 47 48 49 50
000 ASUS41 KGYX 230910 RWRGYX WEATHER ROUNDUP FOR MAINE AND NEW HAMPSHIRE NATIONAL WEATHER SERVICE GRAY ME 500 AM EDT SUN APR 23 2017 MEZ002-005-006-010-012-015-018-020-021-024-026-027-029-231000- MAINE CITY SKY/WX TMP DP RH WIND PRES REMARKS PORTLAND CLOUDY 36 35 96 W5 29.99R FOG SANFORD FOG 34 34 100 CALM 29.99R VSB 1/4 WISCASSET CLOUDY 38 37 97 CALM 29.98S ROCKLAND CLOUDY 38 37 97 CALM 29.96S FRYEBURG FOG 30 30 100 CALM 29.99R VSB 3/4 LEWISTONAUBURN CLEAR 36 36 100 NW8 29.97S AUGUSTA CLOUDY 36 34 92 NW5 29.97R WATERVILLE FOG 36 36 100 W3 29.94S VSB 1 BANGOR FOG 36 35 96 W3 29.96S VSB 1 GREENVILLE N/A 34 34 100 NW8 29.90R MILLINOCKET CLOUDY 33 33 100 CALM 29.96R HOULTON FOG 33 33 100 CALM 29.93S VSB 1/2 PRESQUE ISLE CLOUDY N/A N/A N/A CALM 29.95R FRENCHVILLE CLOUDY 32 29 88 NW8 29.92R CARIBOU CLOUDY 33 31 92 NW5 29.93R $$ NHZ002-005-008-009-011-012-014-231000- NEW HAMPSHIRE CITY SKY/WX TMP DP RH WIND PRES REMARKS PORTSMOUTH FOG 36 35 97 CALM 29.98R VSB 1/8 ROCHESTER PTCLDY 34 31 88 CALM 29.97S FOG NASHUA CLEAR 37 35 92 NW6 30.00F MANCHESTER CLEAR 38 33 82 CALM 29.98S CONCORD CLEAR 34 32 92 CALM 30.00R LACONIA CLEAR 41 33 73 W6 29.99S PLYMOUTH FAIR 42 35 76 NW9 29.99S BERLIN CLOUDY 37 33 85 CALM 29.99R WHITEFIELD CLOUDY 39 35 86 CALM 30.00S JAFFREY CLEAR 38 36 92 CALM 30.00S KEENE MOCLDY 32 32 100 CALM 30.03S LEBANON CLEAR 34 33 96 CALM 30.01F MT WASHINGTON FOG 21 21 100 NW46 N/A VSB 1/8 WCI 0 $$ VTZ005-007-008-231000- VERMONT CITY SKY/WX TMP DP RH WIND PRES REMARKS ST JOHNSBURY N/A 38 37 97 MISG 30.00F MONTPELIER PTCLDY 36 35 96 NW3 30.04F BURLINGTON CLEAR 39 37 92 CALM 30.05R $$ MAZ007-012-024-CTZ003-RIZ002-NYZ038-NYZ072-231000- SOUTHERN NEW ENGLAND AND NY CITY SKY/WX TMP DP RH WIND PRES REMARKS BOSTON CLOUDY 42 37 82 NW9 30.00R WORCESTER CLEAR 38 33 82 W3 30.00R NANTUCKET CLOUDY 44 38 79 N12 29.99R PROVIDENCE CLOUDY 44 39 82 NW6 30.02R HARTFORD CLOUDY 42 37 82 NW6 30.04R ALBANY PTCLDY 40 33 76 N3 30.06F NEW YORK CITY CLOUDY 49 35 58 N12 30.05R $$ ANZ081-ANZ082-ANZ150-NHZ014-MEZ023>029-231000- COASTAL MARINE OBSERVATIONS STATION/POSITION TIME TEMP WIND PRES WAVE AIR SEA DIR/SP/G HT/PER (UTC) (F) (DEG/KT/KT) (MB) (FT/S) MOUNT DESERT ROC 0900 37 1014.1R MATINICUS ROCK 0800 38 360/ 7/ 7 1013.8S ISLE OF SHOALS 0800 41 290/ 5/ 5 1015.2R JEFFREYS LEDGE 0806 43 N/A 6/10 CASHES LEDGE BUO 0850 41 42 1014.4R 5/ 8 GEORGES BANK BUO 0850 41 43 1010.8R 7/11 $$ .............KEY.............. WCI - WIND CHILL TC - TEMPERATURE IN CELSIUS VSB - VISIBILITY IN MILES HX - HEAT INDEX FAIR- INDICATES FEW OR NO CLOUDS BELOW 12,000 FT, WITH NO SIGNIFICANT WEATHER AND/OR OBSTRUCTIONS TO VISIBILITY.

USA.gov is the U.S. government's official web portal to all federal, state and local government web resources and services.